Zurück zum Katalog

CZ-6A DEB

AktivPO
NORAD 61294·DEBRIS·🇨🇳 China

Gestartet Aug 6, 2024 von Taiyuan Satellite Launch Center

Loading…

Nächste Überflüge (nächste 24 Stunden)

TLE

AktuellSource: Space-Track

Epoche: Sep 14, 2026, 10:50 UTC

1 61294U 24140TF  26257.45160681  .00001658  00000-0  45128-3 0  9999
2 61294  88.9017 252.1419 0055238   0.0774   0.0429 14.46167729107800

Verfolge CZ-6A DEB in Echtzeit mit AllMySat

Download on the App Store